Location: Unspecified
(40.8819°N, 0.0000°E)
Time: 09:02:49
(UTC+00:00)

MOZHAYETS 4 - Visible Passes

Search period start: 09 October 2024 00:00
Search period end: 19 October 2024 00:00
Orbit: 649 x 667 km, 98.3° (Epoch: 09 October)

Date Brightness Start Highest point End Pass type
(mag) Time Alt. Az. Time Alt. Az. Time Alt. Az.
09 Oct 10.4 03:11:03 11° N 03:11:03 11° N 03:11:15 10° N visible
09 Oct 11.0 18:11:53 10° NW 18:12:56 11° WNW 18:13:59 10° WNW visible
12 Oct 10.7 18:01:14 10° NNW 18:03:27 14° WNW 18:05:41 10° W visible
15 Oct 10.5 17:50:57 10° NNW 17:53:50 17° WNW 17:56:45 10° WSW visible
18 Oct 10.4 17:40:42 10° NNW 17:44:06 21° WNW 17:47:30 10° WSW visible
